Date String (YYYY-MM-DD hh:mm:ss) UTC,Instrument flags,absolute air pressure of the measurement (hPa),sample flow rate (lpm),inlet stack bypass flow (lpm),air temperature of the measurement (°C),ambient temperature measured by the external sensor (°C),aerosol sample conditioner tube jacket temperature (°C),OPC LED temperature (°C),internal box temperature (°C),relative humidity of the measurement (%),span deviation,mass concentration of particles derived from Lorenz-Mie calculation of OPC scattering (μg/m³),mass concentration of particles derived from Lorenz-Mie calculation of OPC scattering (μg/m³),mass concentration of particles derived from Lorenz-Mie calculation of OPC scattering (μg/m³)
DateTimeUTC,F1_M11,P_M11,Q1_M11,Q2_M11,T1_M11,T2_M11,T3_M11,T4_M11,T5_M11,U1_M11,ZSPAN_M11,X0_M11,X2_M11,X1_M11
2023-09-12 19:00:00,SystemResetWarning,0833.5,5.00,000.00,028.0,024.7,000.0,036.4,029.3,28.5,-001.6,0011.78,0006.88,0006.44
2023-09-12 19:01:00,SystemResetWarning,0833.6,5.00,000.00,028.0,025.1,000.0,036.4,029.3,28.7,-001.8,0011.70,0006.95,0006.50
2023-09-12 19:02:00,SystemResetWarning,0833.5,5.01,000.00,028.0,025.6,000.0,036.4,029.4,28.0,-001.6,0011.68,0006.95,0006.52
2023-09-12 19:03:00,SystemResetWarning,0833.4,5.00,000.00,028.0,025.9,000.0,036.4,029.5,28.0,-001.4,0012.38,0007.01,0006.57
2023-09-12 19:04:00,SystemResetWarning,0833.4,4.98,000.00,028.0,026.3,000.0,036.4,029.6,27.6,-001.3,0012.45,0007.12,0006.66
2023-09-12 19:05:00,SystemResetWarning,0833.4,5.01,000.00,028.0,026.5,000.0,036.4,029.7,27.5,-000.9,0012.49,0007.21,0006.75
2023-09-12 19:06:00,SystemResetWarning,0833.4,5.01,000.00,028.1,026.8,000.0,036.5,029.7,27.3,-001.1,0012.35,0007.34,0006.88
2023-09-12 19:07:00,SystemResetWarning,0833.4,4.99,000.00,028.1,027.0,000.0,036.5,029.8,26.3,-000.9,0012.26,0007.47,0007.02
2023-09-12 19:08:00,SystemResetWarning,0833.4,5.00,000.00,028.2,027.1,000.0,036.5,029.9,26.5,-000.8,0012.33,0007.61,0007.18
2023-09-12 19:09:00,SystemResetWarning,0833.4,4.99,000.00,028.2,027.3,000.0,036.5,029.9,26.5,-000.9,0012.52,0007.78,0007.38
2023-09-12 19:10:00,SystemResetWarning,0833.4,5.00,000.00,028.3,027.0,000.0,036.5,029.9,27.2,-001.1,0012.63,0007.89,0007.51
2023-09-12 19:11:00,SystemResetWarning,0833.4,5.00,000.00,028.2,025.5,000.0,036.4,029.6,28.2,-001.2,0012.97,0007.97,0007.60
2023-09-12 19:12:00,SystemResetWarning,0833.3,5.01,000.00,028.1,024.4,000.0,036.4,029.4,28.8,-001.2,0012.97,0008.02,0007.65
2023-09-12 19:13:00,SystemResetWarning,0833.2,5.01,000.00,028.1,024.3,000.0,036.3,029.4,29.6,-001.5,0013.06,0008.05,0007.68
2023-09-12 19:14:00,SystemResetWarning,0833.3,5.00,000.00,028.0,024.6,000.0,036.3,029.3,28.5,-001.3,0012.58,0008.11,0007.72
2023-09-12 19:15:00,SystemResetWarning,0833.3,5.00,000.00,027.9,025.0,000.0,036.3,029.3,28.5,-001.2,0012.34,0008.12,0007.73
2023-09-12 19:16:00,SystemResetWarning,0833.3,5.00,000.00,027.9,025.5,000.0,036.4,029.4,27.4,-001.1,0012.37,0008.15,0007.76
2023-09-12 19:17:00,SystemResetWarning,0833.3,5.00,000.00,027.9,025.8,000.0,036.4,029.5,25.4,-001.1,0012.34,0008.17,0007.79
2023-09-12 19:18:00,SystemResetWarning,0833.3,5.00,000.00,028.0,026.2,000.0,036.4,029.6,26.1,-001.2,0012.38,0008.17,0007.79
2023-09-12 19:19:00,SystemResetWarning,0833.3,4.99,000.00,028.0,026.5,000.0,036.4,029.6,24.3,-001.2,0012.76,0008.21,0007.82
2023-09-12 19:20:00,SystemResetWarning,0833.3,4.99,000.00,028.0,026.7,000.0,036.4,029.7,25.1,-001.3,0012.82,0008.21,0007.79
2023-09-12 19:21:00,SystemResetWarning,0833.2,5.00,000.00,028.1,026.9,000.0,036.4,029.8,25.1,-001.4,0012.62,0008.21,0007.78
2023-09-12 19:22:00,SystemResetWarning,0833.2,5.00,000.00,028.1,027.1,000.0,036.5,029.8,24.8,-001.4,0012.35,0008.19,0007.76
2023-09-12 19:23:00,SystemResetWarning,0833.2,5.00,000.00,028.2,027.2,000.0,036.5,029.9,24.7,-001.1,0012.25,0008.14,0007.72
2023-09-12 19:24:00,SystemResetWarning,0833.2,5.00,000.00,028.2,027.4,000.0,036.5,030.0,24.5,-001.0,0012.53,0008.13,0007.72
2023-09-12 19:25:00,SystemResetWarning,0833.2,4.99,000.00,028.3,027.0,000.0,036.5,030.0,24.2,-001.2,0012.81,0008.12,0007.72
2023-09-12 19:26:00,SystemResetWarning,0833.2,5.00,000.00,028.2,025.4,000.0,036.4,029.6,25.3,-001.2,0013.56,0008.12,0007.71
2023-09-12 19:27:00,SystemResetWarning,0833.2,5.00,000.00,028.1,024.3,000.0,036.3,029.4,25.6,-001.5,0013.52,0008.10,0007.69
2023-09-12 19:28:00,SystemResetWarning,0833.2,5.01,000.00,028.1,024.3,000.0,036.3,029.3,25.9,-001.8,0013.53,0008.10,0007.70
2023-09-12 19:29:00,SystemResetWarning,0833.2,5.00,000.00,028.0,024.7,000.0,036.3,029.3,26.7,-002.0,0013.57,0008.12,0007.70
2023-09-12 19:30:00,SystemResetWarning,0833.2,5.00,000.00,028.0,025.1,000.0,036.3,029.3,27.6,-002.1,0013.27,0008.08,0007.65
2023-09-12 19:31:00,SystemResetWarning,0833.2,5.00,000.00,028.0,025.5,000.0,036.4,029.4,27.8,-002.1,0013.17,0008.03,0007.60
2023-09-12 19:32:00,SystemResetWarning,0833.2,5.01,000.00,028.0,025.9,000.0,036.4,029.5,26.5,-001.9,0013.08,0008.01,0007.57
2023-09-12 19:33:00,SystemResetWarning,0833.2,5.00,000.00,028.0,026.2,000.0,036.4,029.6,25.9,-002.0,0013.00,0008.01,0007.55
2023-09-12 19:34:00,SystemResetWarning,0833.1,4.99,000.00,028.0,026.5,000.0,036.4,029.7,25.2,-002.2,0012.92,0007.93,0007.49
2023-09-12 19:35:00,SystemResetWarning,0833.1,4.99,000.00,028.1,026.8,000.0,036.4,029.7,22.9,-002.4,0012.56,0007.82,0007.39
2023-09-12 19:36:00,SystemResetWarning,0833.1,5.01,000.00,028.1,027.0,000.0,036.4,029.8,24.1,-002.5,0012.00,0007.75,0007.34
2023-09-12 19:37:00,SystemResetWarning,0833.1,5.00,000.00,028.2,027.1,000.0,036.5,029.9,25.0,-002.5,0011.44,0007.67,0007.26
2023-09-12 19:38:00,SystemResetWarning,0833.1,5.01,000.00,028.2,027.3,000.0,036.5,030.0,24.2,-002.7,0010.98,0007.57,0007.19
2023-09-12 19:39:00,SystemResetWarning,0833.1,4.99,000.00,028.3,026.7,000.0,036.5,029.9,23.8,-002.3,0010.89,0007.44,0007.04
2023-09-12 19:40:00,SystemResetWarning,0833.2,4.99,000.00,028.2,025.0,000.0,036.4,029.5,24.7,-002.0,0010.60,0007.21,0006.82
2023-09-12 19:41:00,SystemResetWarning,0833.3,5.02,000.00,028.1,024.2,000.0,036.3,029.4,25.1,-001.7,0010.39,0007.02,0006.64
2023-09-12 19:42:00,SystemResetWarning,0833.1,5.00,000.00,028.0,024.3,000.0,036.3,029.3,24.7,-001.4,0010.20,0006.85,0006.49
2023-09-12 19:43:00,SystemResetWarning,0832.9,5.00,000.00,027.9,024.6,000.0,036.3,029.2,24.9,-001.5,0009.99,0006.69,0006.32
2023-09-12 19:44:00,SystemResetWarning,0833.0,5.01,000.00,027.9,025.1,000.0,036.3,029.3,25.6,-001.3,0009.70,0006.48,0006.14
2023-09-12 19:45:00,SystemResetWarning,0832.9,5.00,000.00,027.9,025.5,000.0,036.3,029.4,24.6,-001.3,0009.45,0006.30,0005.97
2023-09-12 19:46:00,SystemResetWarning,0833.1,4.99,000.00,027.9,025.9,000.0,036.3,029.5,23.7,-001.1,0010.07,0006.18,0005.84
2023-09-12 19:47:00,SystemResetWarning,0833.4,4.99,000.00,028.0,026.2,000.0,036.3,029.6,23.3,-000.3,0009.89,0006.02,0005.69
2023-09-12 19:48:00,SystemResetWarning,0833.4,5.02,000.00,028.0,026.5,000.0,036.4,029.6,22.6,0000.0,0009.71,0005.88,0005.57
2023-09-12 19:49:00,SystemResetWarning,0832.9,4.99,000.00,028.0,026.7,000.0,036.4,029.7,22.8,0000.3,0009.62,0005.78,0005.46
2023-09-12 19:50:00,SystemResetWarning,0833.0,4.99,000.00,028.1,026.9,000.0,036.4,029.8,22.3,0000.6,0009.48,0005.65,0005.35
2023-09-12 19:51:00,SystemResetWarning,0833.1,5.00,000.00,028.1,027.1,000.0,036.4,029.8,21.4,0000.6,0009.37,0005.55,0005.27
2023-09-12 19:52:00,SystemResetWarning,0833.0,5.02,000.00,028.2,027.3,000.0,036.5,029.9,20.5,0000.8,0009.22,0005.45,0005.18
2023-09-12 19:53:00,SystemResetWarning,0832.9,4.99,000.00,028.2,027.2,000.0,036.5,030.0,21.3,0000.5,0009.07,0005.34,0005.09
2023-09-12 19:54:00,SystemResetWarning,0833.0,4.99,000.00,028.2,025.7,000.0,036.4,029.6,21.6,0000.5,0008.87,0005.24,0005.02
2023-09-12 19:55:00,SystemResetWarning,0833.2,5.01,000.00,028.1,024.3,000.0,036.3,029.3,22.5,0000.7,0008.85,0005.14,0004.93
2023-09-12 19:56:00,SystemResetWarning,0833.3,5.01,000.00,028.0,024.2,000.0,036.2,029.3,23.1,0000.4,0008.95,0005.06,0004.85
2023-09-12 19:57:00,SystemResetWarning,0833.1,5.00,000.00,027.9,024.5,000.0,036.3,029.2,23.8,0000.7,0008.82,0004.98,0004.78
2023-09-12 19:58:00,SystemResetWarning,0832.8,5.00,000.00,027.9,024.9,000.0,036.3,029.3,23.5,0000.5,0008.80,0004.93,0004.71
2023-09-12 19:59:00,SystemResetWarning,0832.8,5.00,000.00,027.9,025.3,000.0,036.3,029.3,23.2,0000.8,0009.12,0004.84,0004.61
